This is the latest recevied weather packets stored in our database for station/object K2ATL. If no packets are shown the sender has not sent any weather packets the latest 10 day(s).
| Time | Temp. | Humidity | Pressure | Rain* | Wind** | Luminosity | Snow |
|---|---|---|---|---|---|---|---|
| 1777724550 | 9.44° C | 74% | 1097.3 hPa | 0 mm | - | 91 W/m² | - |
| 1777724249 | 9.44° C | 73% | 1097 hPa | 0 mm | - | 69 W/m² | - |
| 1777723946 | 9.44° C | 75% | 1096.9 hPa | 0 mm | - | 50 W/m² | - |
| 1777723642 | 8.89° C | 73% | 1096.5 hPa | 0 mm | - | 59 W/m² | - |
| 1777723339 | 8.89° C | 72% | 1097 hPa | 0 mm | - | 40 W/m² | - |
| 1777723037 | 8.89° C | 72% | 1097.1 hPa | 0 mm | - | 43 W/m² | - |
| 1777722733 | 8.89° C | 73% | 1097.2 hPa | 0 mm | - | 38 W/m² | - |
| 1777722429 | 8.89° C | 75% | 1097.6 hPa | 0 mm | - | 21 W/m² | - |
| 1777722127 | 8.89° C | 78% | 1097.5 hPa | 0 mm | - | 25 W/m² | - |
| 1777721824 | 8.89° C | 78% | 1097.4 hPa | 0 mm | - | 30 W/m² | - |
| 1777721522 | 8.89° C | 79% | 1097.1 hPa | 0 mm | - | 25 W/m² | - |
| 1777721219 | 9.44° C | 78% | 1097 hPa | 0 mm | - | 20 W/m² | - |
| 1777720916 | 9.44° C | 76% | 1097 hPa | 0 mm | - | 20 W/m² | - |
| 1777720614 | 9.44° C | 74% | 1097.3 hPa | 0 mm | - | 12 W/m² | - |
| 1777720311 | 9.44° C | 72% | 1097.1 hPa | 0 mm | - | 9 W/m² | - |
| 1777720009 | 10° C | 70% | 1097.1 hPa | 0 mm | - | 7 W/m² | - |
| 1777719706 | 10° C | 69% | 1096.9 hPa | 0 mm | - | 7 W/m² | - |
| 1777719403 | 10° C | 68% | 1096.6 hPa | 0 mm | - | 4 W/m² | - |
| 1777719100 | 10° C | 69% | 1096.6 hPa | 0 mm | - | 2 W/m² | - |
| 1777718797 | 10° C | 68% | 1096.6 hPa | 0 mm | - | 1 W/m² | - |
| 1777718495 | 10° C | 68% | 1096.8 hPa | 0 mm | - | 1 W/m² | - |
| 1777718192 | 9.44° C | 68% | 1096.5 hPa | 0 mm | - | 0 W/m² | - |
| 1777717890 | 10° C | 67% | 1096.5 hPa | 0 mm | - | 0 W/m² | - |
| 1777717587 | 10° C | 68% | 1096.5 hPa | 0 mm | - | 0 W/m² | - |
| 1777717284 | 10° C | 68% | 1096.2 hPa | 0 mm | - | 0 W/m² | - |
* Rain latest hour (hover to see other rain measurements)
** Current wind speed in m/s (hover to see current wind gust speed)